CAPE
0 0 3 1 0 0 0 0 0 0 0 0 0 1 16 39 69 53 57 67 63 50 22 21 28 15 7 6 3 6 14 17 7 9 14 11 37 14 6 0 1 0 0
0 0 4 0 0 0 0 0 0 0 0 0 0 29 49 36 47 45 48 62 60 20 3 2 0 0 0 0 0 2 8 12 6 14 24 4 1 6 8 3 0 0 0
0 0 1 0 0 0 0 0 0 0 0 0 0 26 32 9 23 0 0 11 5 26 10 14 6 3 0 1 0 0 6 9 5 33 24 10 7 2 2 2 0 0 0
0 0 0 0 0 0 0 0 0 0 0 0 0 15 11 4 0 0 0 0 0 3 15 12 3 0 0 1 0 8 7 12 6 25 25 21 4 1 2 1 0 0 0
0 0 0 0 0 0 0 0 0 0 0 0 9 39 21 6 0 0 0 0 0 0 3 31 9 0 1 9 1 9 7 1 14 21 34 14 0 0 0 0 0 0 0
0 0 0 0 0 0 0 0 0 0 0 0 0 2 6 0 0 0 4 9 5 3 8 2 3 0 0 8 9 21 29 11 13 1 0 14 0 0 0 0 0 0 0
0 0 0 0 0 0 0 0 0 0 0 0 0 0 4 8 0 1 1 16 9 0 14 10 18 5 20 8 10 21 23 10 2 4 2 0 0 0 0 0 0 0 0
0 0 0 0 0 0 0 0 0 0 0 0 0 0 0 1 0 17 2 20 25 16 25 30 6 3 13 13 10 18 0 0 0 0 0 0 0 0 0 0 0 0 0
0 0 0 0 0 0 0 0 0 0 0 0 0 0 0 2 0 5 2 1 6 8 19 21 11 0 2 3 8 0 0 0 0 0 0 0 0 0 0 0 0 2 46
0 0 0 0 0 0 0 0 0 0 0 0 0 0 0 0 0 0 0 2 8 0 0 0 6 4 0 0 0 0 0 0 0 0 0 0 0 0 0 11 4 0 0
0 0 0 0 0 0 0 0 0 0 0 0 0 0 0 0 0 0 0 0 0 0 0 0 0 0 0 0 0 0 0 0 0 0 0 0 0 0 0 0 0 0 0
0 0 0 0 0 0 0 0 0 0 0 0 0 0 0 0 0 0 0 0 0 0 0 0 0 0 0 0 0 0 0 0 0 0 0 0 0 0 0 0 0 0 0
0 0 0 0 0 0 0 0 0 0 0 0 0 0 0 0 0 0 0 0 0 0 0 0 0 0 0 0 0 0 0 0 0 0 0 0 0 0 0 0 0 0 0
0 0 0 0 0 0 0 0 0 0 0 0 0 0 0 0 0 0 0 0 0 0 0 0 0 0 0 0 0 0 0 0 0 0 0 0 0 0 0 0 0 0 0
0 0 0 0 0 0 0 0 0 0 0 0 0 0 0 0 0 0 0 0 0 0 0 0 0 0 0 0 0 0 0 0 0 0 0 0 0 0 0 0 0 0 0
0 0 0 0 0 0 0 0 0 0 0 0 0 0 0 0 0 0 0 0 0 0 0 0 0 0 0 0 0 0 0 0 0 0 0 0 0 0 0 0 0 0 0
0 0 0 0 0 0 0 0 0 0 0 0 0 0 0 0 0 0 0 0 0 0 0 0 0 0 0 0 0 0 0 0 0 0 0 0 0 0 0 0 0 0 0
0 0 0 0 0 0 0 0 0 0 0 0 0 0 0 0 0 0 0 0 0 0 0 0 0 0 0 0 0 0 0 0 0 0 0 0 0 0 0 0 0 0 0
0 0 0 0 0 0 0 0 0 0 0 0 0 0 0 0 0 0 0 0 0 0 0 0 0 0 0 0 0 0 0 0 0 0 0 0 0 0 0 0 0 0 0
0 0 0 0 0 0 0 0 0 0 0 0 0 0 0 0 0 0 0 0 0 0 0 0 0 0 0 0 0 0 0 0 0 0 0 0 0 0 0 0 0 0 0
0 0 0 0 0 0 0 0 0 0 0 0 0 0 0 0 0 0 0 0 0 0 0 0 0 0 0 0 0 0 0 0 0 0 0 0 0 0 0 0 0 0 0
0 0 0 0 0 0 0 0 0 0 0 0 0 0 0 0 0 0 0 0 0 0 0 0 0 0 0 0 0 0 0 0 0 0 0 0 0 0 0 0 0 0 0
0 0 0 0 0 0 0 0 0 0 0 0 0 0 0 0 0 0 0 0 0 0 0 0 0 0 0 0 0 0 0 0 0 0 0 0 0 0 0 0 0 0 0
0 0 0 0 0 0 0 0 0 0 0 0 0 0 0 0 0 0 0 0 0 0 0 0 0 0 0 0 0 0 0 0 0 0 0 0 0 0 0 0 0 0 0
47 3 0 0 0 0 0 0 0 0 0 0 0 0 0 0 0 0 0 0 0 0 0 0 0 0 0 0 0 0 0 0 0 0 0 0 0 0 0 0 0 0 0
92 55 42 3 0 0 0 0 0 0 0 0 0 0 0 0 0 0 0 0 0 0 0 0 0 0 0 0 0 0 0 0 0 0 0 0 0 0 0 0 0 0 0
CIN
0 0 -23 -5 0 0 0 0 0 0 0 0 0 -28 -69 -54 -40 -39 -46 -50 -53 -43 -46 -49 -38 -63 -86 -67 -44 -22 -33 -45 -23 -10 -3 -5 0 -3 -19 -25 -73 0 0
0 0 -22 -4 0 -33 0 0 0 0 0 0 0 -47 -55 -53 -45 -43 -53 -54 -57 -53 -3 -2 -3 -2 0 0 -2 -35 -44 -51 -63 -25 -6 -4 0 -35 -77 -110 0 0 0
0 0 -16 0 0 0 0 0 0 0 0 0 0 -55 -62 -43 -43 0 0 -56 -48 -43 -58 -52 -46 -64 -5 -42 0 -7 -37 -52 -45 -29 0 -11 -19 -78 -37 -138 0 0 0
0 0 0 0 0 0 0 0 0 0 0 0 0 -39 -70 -36 0 0 0 0 0 -73 -51 -44 -40 -7 -12 -15 -29 -63 -39 -16 -20 -17 -23 -50 -80 -52 -47 -28 0 0 0
0 0 0 0 0 0 0 0 0 0 0 0 -68 -35 -44 -41 0 0 0 0 0 -1 -30 -32 -27 -5 -9 -55 -43 -50 -23 -13 -37 -40 -38 -49 0 0 0 0 0 0 0
0 0 0 0 0 0 0 0 0 0 0 0 0 -65 -40 -4 -1 0 -66 -81 -85 -34 -38 -1 -23 -26 -1 -54 -56 -48 -47 -76 -116 -15 0 -67 0 0 0 0 0 0 0
0 0 0 0 0 0 0 0 0 0 0 0 0 0 -30 -33 0 -60 -80 -49 -36 0 -28 -16 -6 -23 -30 -54 -58 -55 -45 -73 -111 -98 -50 0 0 0 0 0 0 0 0
0 0 0 0 0 0 0 0 0 0 0 0 0 0 0 -85 -12 -68 -28 -33 -36 -22 -24 -12 -45 -21 -47 -57 -70 -62 0 0 0 0 0 0 0 0 0 0 0 0 0
0 0 0 0 0 0 0 0 0 0 0 0 0 0 0 -152 0 -77 -81 -83 -57 -44 -35 -40 -58 -73 -100 -82 -70 0 0 0 0 0 0 0 0 0 0 0 0 -115 -101
0 0 0 0 0 0 0 0 0 0 0 0 0 0 0 0 0 0 0 -100 -100 -31 0 -76 -82 -103 -151 0 0 0 0 0 0 0 0 0 0 0 0 -170 -37 0 0
0 0 0 0 0 0 0 0 0 0 0 0 0 0 0 0 0 0 0 0 0 0 0 0 0 0 0 0 0 0 0 0 0 0 0 0 0 0 0 0 0 0 0
0 0 0 0 0 0 0 0 0 0 0 0 0 0 0 0 0 0 0 0 0 0 0 0 0 0 0 0 0 0 0 0 0 0 0 0 0 0 0 0 0 0 0
0 0 0 0 0 0 0 0 0 0 0 0 0 0 0 0 0 0 0 0 0 0 0 0 0 0 0 0 0 0 0 0 0 0 0 0 0 0 0 0 0 0 0
0 0 0 0 0 0 0 0 0 0 0 0 0 0 0 0 0 0 0 0 0 0 0 0 0 0 0 0 0 0 0 0 0 0 0 0 0 0 0 0 0 0 0
0 0 0 0 0 0 0 0 0 0 0 0 0 0 0 0 0 0 0 0 0 0 0 0 0 0 0 0 0 0 0 0 0 0 0 0 0 0 0 0 0 0 0
0 0 0 0 0 0 0 0 0 0 0 0 0 0 0 0 0 0 0 0 0 0 0 0 0 0 0 0 0 0 0 0 0 0 0 0 0 0 0 0 0 0 0
0 0 0 0 0 0 0 0 0 0 0 0 0 0 0 0 0 0 0 0 0 0 0 0 0 0 0 0 0 0 0 0 0 0 0 0 0 0 0 0 0 0 0
0 0 0 0 0 0 0 0 0 0 0 0 0 0 0 0 0 0 0 0 0 0 0 0 0 0 0 0 0 0 0 0 0 0 0 0 0 0 0 0 0 0 0
0 0 0 0 0 0 0 0 0 0 0 0 0 0 0 0 0 0 0 0 0 0 0 0 0 0 0 0 0 0 0 0 0 0 0 0 0 0 0 0 0 0 0
0 0 0 0 0 0 0 0 0 0 0 0 0 0 0 0 0 0 0 0 0 0 0 0 0 0 0 0 0 0 0 0 0 0 0 0 0 0 0 0 0 0 0
0 0 0 0 0 0 0 0 0 0 0 0 0 0 0 0 0 0 0 0 0 0 0 0 0 0 0 0 0 0 0 0 0 0 0 0 0 0 0 0 0 0 0
0 0 0 0 0 0 0 0 0 0 0 0 0 0 0 0 0 0 0 0 0 0 0 0 0 0 0 0 0 0 0 0 0 0 0 0 0 0 0 0 0 0 0
0 0 0 0 0 0 0 0 0 0 0 0 0 0 0 0 0 0 0 0 0 0 0 0 0 0 0 0 0 0 0 0 0 0 0 0 0 0 0 0 0 0 0
0 0 0 0 0 0 0 0 0 0 0 0 0 0 0 0 0 0 0 0 0 0 0 0 0 0 0 0 0 0 0 0 0 0 0 0 0 0 0 0 0 0 0
-303 -232 -16 0 0 0 0 0 0 0 0 0 0 0 0 0 0 0 0 0 0 0 0 0 0 0 0 0 0 0 0 0 0 0 0 0 0 0 0 0 0 0 0
-286 -284 -299 -171 0 0 0 0 0 0 0 0 0 0 0 0 0 0 0 0 0 0 0 0 0 0 0 0 0 0 0 0 0 0 0 0 0 0 0 0 0 0 0
Wind_Speed
14 14 14 15 16 16 17 19 20 21 24 24 23 22 20 17 16 11 11 12 11 13 11 3 11 13 12 18 14 8 13 17 9 12 17 7 9 9 9 8 8 10 13
14 15 15 16 16 16 17 19 20 22 23 25 23 22 22 20 16 8 8 9 7 7 10 3 14 23 2 4 14 19 14 14 12 15 14 16 8 5 7 9 12 13 14
16 16 17 18 18 18 18 22 22 24 25 25 24 25 26 21 15 14 10 7 8 10 8 2 9 14 19 7 15 8 6 8 10 14 15 9 9 9 9 10 12 12 17
17 17 19 19 20 20 22 26 26 27 29 26 23 26 28 23 16 12 10 10 11 10 7 7 0 13 17 20 14 17 9 3 7 6 10 12 11 14 13 12 13 16 15
19 20 20 21 23 25 27 28 28 28 27 27 26 19 25 24 21 12 9 9 10 9 7 8 11 1 11 10 14 10 14 11 10 5 9 14 13 8 8 13 13 14 14
21 22 22 24 25 27 28 29 29 27 25 26 20 21 25 23 20 17 13 12 12 11 6 7 2 10 7 12 9 15 24 13 17 11 13 14 12 8 12 10 8 9 12
22 23 25 26 25 26 27 28 26 25 25 26 25 18 22 25 20 12 11 9 9 13 5 7 10 5 4 10 9 4 8 22 20 15 10 11 14 24 6 6 7 9 11
24 26 27 27 26 27 27 28 26 25 25 25 23 24 26 27 27 26 21 15 16 18 14 20 11 18 11 20 20 19 18 21 27 28 26 24 12 19 17 11 10 11 12
26 26 28 27 26 26 27 27 25 25 24 24 24 26 27 29 30 29 28 22 26 29 27 29 29 29 24 29 21 19 20 22 17 24 21 13 21 14 13 11 10 10 12
26 26 27 27 26 26 26 26 25 24 25 26 26 26 28 29 30 31 30 30 29 29 27 28 33 32 32 30 27 22 7 8 4 7 12 11 11 13 12 11 11 11 13
27 27 27 27 27 27 27 27 26 25 25 26 27 27 28 28 30 31 32 31 31 32 31 30 31 31 31 30 30 29 8 20 13 12 12 11 12 13 13 13 13 13 16
24 25 26 27 26 25 26 26 26 24 25 26 27 27 25 27 29 30 29 29 30 30 30 30 29 29 29 28 27 25 18 14 12 11 11 10 10 11 13 15 16 17 17
21 22 25 27 26 25 24 25 26 26 26 27 27 28 28 27 27 27 28 28 28 27 27 26 24 23 19 18 18 15 13 9 8 7 8 9 9 10 11 13 15 17 19
24 23 23 24 26 28 27 27 28 28 27 27 28 28 29 28 28 27 26 25 25 24 22 20 18 16 14 11 8 7 6 5 5 6 7 8 9 9 9 11 13 16 17
24 25 25 24 25 26 29 29 28 28 26 26 28 28 28 27 27 25 23 21 21 18 13 12 13 11 10 8 6 5 3 3 4 5 5 6 7 8 9 10 11 14 15
21 22 25 23 23 23 24 28 25 28 28 28 26 26 26 25 23 23 22 20 15 13 8 10 13 13 13 12 9 4 2 2 2 3 3 4 5 6 8 11 12 12 14
20 17 19 20 20 19 16 19 22 13 22 31 27 24 23 21 19 18 17 17 15 11 10 12 13 14 14 12 8 3 3 2 1 2 2 3 4 5 7 9 9 11 13
17 16 16 16 15 16 15 14 9 13 17 9 7 8 15 12 13 12 12 7 8 11 11 12 14 14 13 10 8 6 4 4 3 3 2 3 4 4 6 7 8 9 11
17 14 13 11 11 11 11 10 8 6 5 6 10 11 9 6 4 6 10 9 10 12 16 14 14 14 12 9 9 7 6 6 5 5 4 3 4 5 6 9 8 8 10
19 18 15 12 10 10 10 9 8 8 7 6 6 7 7 7 6 7 9 12 12 12 14 15 13 12 13 11 9 8 7 7 7 7 6 5 5 5 6 7 8 11 12
16 16 16 12 13 13 12 11 9 8 8 8 7 7 8 9 11 13 10 11 12 10 10 12 12 12 11 10 10 9 9 8 8 9 8 7 5 4 4 7 11 8 8
14 14 13 13 12 14 14 13 13 11 11 9 8 7 9 10 10 11 11 12 12 12 12 12 11 12 14 13 13 13 12 11 12 10 11 10 7 4 5 7 7 6 7
13 12 11 9 10 12 13 14 15 14 13 13 14 13 12 11 12 12 13 13 13 13 13 14 14 14 14 17 15 15 14 13 11 11 10 9 9 7 8 5 2 3 6
13 12 11 9 8 9 12 14 13 13 13 13 12 11 11 12 13 13 14 15 15 15 15 15 17 17 15 14 16 13 12 10 8 8 7 6 7 7 6 4 4 3 6
17 12 10 9 8 9 10 10 11 13 13 12 13 12 12 13 12 13 15 16 16 16 16 17 17 16 15 16 14 12 9 9 7 6 7 4 5 5 4 2 2 4 6
15 13 12 11 11 10 9 9 10 11 12 13 14 14 15 15 15 17 18 18 19 20 19 18 17 15 14 13 11 8 6 5 3 2 6 4 4 3 3 3 3 4 6
Wind_Direction
89 89 73 80 81 96 96 107 111 154 164 166 168 178 198 206 213 226 223 215 216 213 225 254 71 80 214 207 208 217 216 218 200 214 213 214 205 201 225 243 278 279 276
106 106 92 88 85 104 111 107 131 151 170 163 173 185 188 192 203 236 226 229 239 233 224 25 84 107 173 133 204 195 202 214 208 212 216 217 135 211 242 270 265 278 279
102 96 92 86 96 115 124 130 137 149 155 163 167 166 171 190 208 210 222 235 234 224 233 290 77 89 99 106 108 135 188 219 216 212 214 234 235 239 243 249 260 279 264
104 94 101 94 106 123 126 128 128 137 133 152 165 158 147 182 211 220 223 221 220 230 240 223 55 91 97 102 98 103 87 103 185 200 223 225 224 224 242 264 271 259 271
115 113 115 104 117 122 117 130 134 132 140 144 150 181 164 174 192 225 240 242 243 242 250 239 222 179 98 94 90 85 94 100 189 178 191 209 225 253 274 263 264 270 280
125 125 121 118 121 124 112 118 118 125 142 134 174 171 151 175 202 210 235 244 241 240 259 236 91 96 110 90 78 85 106 117 189 196 216 235 252 275 253 268 292 303 306
130 128 132 133 125 122 116 119 115 115 140 124 148 185 164 145 141 176 236 241 237 219 233 217 207 181 124 99 106 158 195 195 209 224 249 242 223 197 275 304 357 357 9
137 140 146 146 138 127 125 129 136 129 121 128 155 147 128 133 126 155 182 197 192 193 201 187 195 190 178 186 192 197 205 201 181 176 175 174 92 114 109 73 56 43 25
144 143 148 144 133 131 135 138 139 132 133 145 148 137 125 136 137 147 162 170 168 159 169 165 177 178 189 180 198 205 202 191 212 197 209 244 189 110 94 65 61 42 27
147 146 147 145 139 140 144 145 152 147 139 136 137 143 141 134 142 142 144 154 159 161 174 177 168 170 172 173 183 196 222 225 256 33 69 69 42 43 64 58 71 43 24
151 150 149 150 145 150 149 147 145 146 140 145 143 145 145 148 151 145 142 144 143 150 162 168 168 169 170 171 165 151 143 107 78 69 64 50 39 41 35 26 19 18 4
147 148 149 150 145 144 144 145 143 134 137 144 146 156 166 158 150 151 151 149 150 148 153 159 158 157 157 150 149 153 119 97 84 69 62 55 46 21 4 7 14 16 15
148 149 153 154 152 147 144 146 148 147 146 152 155 156 157 162 161 157 153 149 144 148 147 145 137 133 124 125 131 121 111 87 70 51 26 15 14 24 29 27 22 20 15
155 156 156 155 157 160 157 157 162 164 161 159 160 162 165 162 157 155 152 147 146 143 133 129 129 124 124 110 103 94 77 65 41 26 28 31 30 27 27 22 18 16 16
158 159 161 160 161 162 168 168 167 171 163 162 168 169 165 165 167 159 150 145 147 139 118 115 128 129 131 126 112 103 55 35 34 26 36 28 21 18 12 15 14 8 9
157 158 161 160 161 162 163 174 236 210 179 180 172 167 171 171 164 164 166 162 146 135 121 137 149 154 156 154 150 141 346 360 35 30 11 5 2 360 3 2 5 10 12
166 161 158 158 159 162 160 162 166 211 252 207 185 173 172 169 167 165 166 166 162 153 161 164 166 168 170 171 177 215 233 252 255 306 323 337 344 349 356 359 4 7 5
174 173 169 165 163 163 166 168 171 165 168 164 284 167 172 170 173 171 166 160 173 179 178 178 179 180 182 188 198 209 259 278 253 259 275 305 329 341 349 357 1 358 0
180 183 186 187 186 185 186 182 193 213 222 256 282 284 280 265 240 188 178 191 197 196 191 192 190 189 197 209 210 218 246 246 244 245 257 279 310 327 336 346 349 8 15
180 181 189 209 215 218 228 213 206 212 206 224 240 228 261 265 219 208 199 194 196 199 198 201 203 205 200 208 216 227 228 234 245 252 260 276 295 315 330 347 350 330 349
185 183 185 198 203 202 219 226 223 220 204 201 203 227 214 219 205 197 201 204 209 219 227 222 229 221 225 229 235 235 235 235 234 256 255 262 268 289 326 340 329 340 358
202 197 197 201 210 211 215 232 234 232 234 236 239 253 219 224 245 241 238 228 232 236 247 253 255 249 249 246 256 265 265 257 253 239 260 255 253 261 297 315 318 332 352
217 215 209 219 213 212 215 216 211 222 243 255 271 277 271 258 250 249 243 251 260 263 257 258 262 269 266 267 261 260 260 257 266 254 252 247 254 272 300 285 314 335 348
225 222 209 213 219 213 203 201 208 215 226 236 245 255 263 264 259 258 262 272 272 272 271 268 270 271 272 263 264 260 267 258 268 241 250 257 278 295 283 312 298 12 8
234 224 223 220 218 197 204 213 217 218 228 242 241 240 240 262 263 268 275 280 281 279 277 277 278 271 266 274 268 259 250 228 242 226 233 256 281 289 261 265 284 320 357
236 235 237 243 244 244 244 237 242 251 249 249 253 262 273 279 278 283 288 287 288 288 287 286 285 280 272 268 264 256 233 226 221 245 268 281 288 235 219 217 266 329 10